Weather History for KJYG - October, 2012

Change the Weather History Date:

Thursday, October 11, 2012

  Actual Average Record
Temperature  
Mean Temperature 40 °F -  
Max Temperature 55 °F 62 °F 85 °F (1962)
Min Temperature 24 °F 39 °F 24 °F (2012)
Degree Days  
Heating Degree Days 26    
Moisture  
Dew Point 22 °F    
Average Humidity 43    
Maximum Humidity 70    
Minimum Humidity 22    
Precipitation  
Precipitation 0.00 in - - ()
Sea Level Pressure  
Sea Level Pressure 30.13 in    
Wind  
Wind Speed 14 mph (NW)    
Max Wind Speed 24 mph    
Max Gust Speed 32 mph    
Visibility 10 miles    
Events      
Averages and records for this station are not official NWS values.
T = Trace of Precipitation, MM = Missing Value Source: NWS Daily Summary

Daily Weather History Graph

Daily Weather History Graph

Search for Another Location

Airport or City:

Trip Planner

Search our weather history database for the weather conditions in past years. The results will help you decide how hot, cold, wet, or windy it might be!

Date:

Astronomy

Oct. 11, 2012 Rise Set
Actual Time 7:28 AM CDT 6:40 PM CDT
Civil Twilight 6:59 AM CDT 7:09 PM CDT
Nautical Twilight 6:26 AM CDT 7:42 PM CDT
Astronomical Twilight 5:52 AM CDT 8:16 PM CDT
Moon 2:59 AM CDT (10/11) 4:24 PM CDT (10/11)
Length of Visible Light 12h 09m
Length of Day
11h 11m
Waning Crescent, 18% of the Moon is Illuminated
Oct 11
Waning Crescent
Oct 15
New
Oct 21
First Quarter
Oct 29
Full
Nov 6
Last Quarter

Hourly Weather History & Observations

Time (CDT) Temp. Windchill Dew Point Humidity Pressure Visibility Wind Dir Wind Speed Gust Speed Precip Events Conditions
12:15 AM 50.0 °F - 26.6 °F 40% 29.87 in 10.0 mi South 15.0 mph 21.9 mph N/A   Clear
12:34 AM 50.0 °F - 26.6 °F 40% 29.86 in 10.0 mi SSW 12.7 mph 20.7 mph N/A   Clear
12:55 AM 50.0 °F - 26.6 °F 40% 29.85 in 10.0 mi SSW 12.7 mph 19.6 mph N/A   Clear
1:15 AM 51.8 °F - 24.8 °F 35% 29.85 in 10.0 mi SSW 13.8 mph 21.9 mph N/A   Clear
1:35 AM 53.6 °F - 24.8 °F 33% 29.84 in 10.0 mi SSW 18.4 mph 25.3 mph N/A   Clear
1:55 AM 55.4 °F - 23.0 °F 29% 29.84 in 10.0 mi SSW 21.9 mph 31.1 mph N/A   Clear
2:15 AM 55.4 °F - 23.0 °F 29% 29.84 in 10.0 mi SSW 20.7 mph 28.8 mph N/A   Clear
2:55 AM 53.6 °F - 23.0 °F 30% 29.85 in 10.0 mi SSW 24.2 mph 32.2 mph N/A   Clear
3:15 AM 53.6 °F - 23.0 °F 30% 29.85 in 10.0 mi SW 23.0 mph 31.1 mph N/A   Clear
3:35 AM 53.6 °F - 24.8 °F 33% 29.89 in 10.0 mi WNW 11.5 mph 23.0 mph N/A   Clear
3:55 AM 53.6 °F - 24.8 °F 33% 29.90 in 10.0 mi West 13.8 mph 20.7 mph N/A   Clear
4:15 AM 53.6 °F - 24.8 °F 33% 29.90 in 10.0 mi West 13.8 mph - N/A   Clear
4:35 AM 53.6 °F - 24.8 °F 33% 29.91 in 10.0 mi WSW 11.5 mph - N/A   Clear
4:55 AM 51.8 °F - 24.8 °F 35% 29.91 in 10.0 mi WSW 9.2 mph - N/A   Clear
5:15 AM 51.8 °F - 24.8 °F 35% 29.92 in 10.0 mi WSW 12.7 mph - N/A   Clear
5:35 AM 51.8 °F - 24.8 °F 35% 29.93 in 10.0 mi WSW 10.4 mph - N/A   Clear
5:55 AM 51.8 °F - 26.6 °F 38% 29.93 in 10.0 mi West 12.7 mph - N/A   Clear
6:15 AM 50.0 °F - 28.4 °F 43% 29.95 in 10.0 mi West 13.8 mph - N/A   Clear
6:35 AM 48.2 °F - 28.4 °F 46% 29.98 in 10.0 mi WNW 16.1 mph - N/A   Clear
6:55 AM 46.4 °F 38.5 °F 26.6 °F 46% 30.00 in 10.0 mi NW 21.9 mph - N/A   Clear
7:15 AM 44.6 °F 37.8 °F 26.6 °F 49% 30.01 in 10.0 mi NNW 15.0 mph 20.7 mph N/A   Clear
7:35 AM 42.8 °F 35.4 °F 26.6 °F 53% 30.03 in 10.0 mi NW 15.0 mph - N/A   Clear
7:55 AM 42.8 °F 35.8 °F 30.2 °F 61% 30.05 in 10.0 mi NNW 13.8 mph - N/A   Clear
8:15 AM 42.8 °F 36.6 °F 30.2 °F 61% 30.07 in 10.0 mi NNW 11.5 mph - N/A   Clear
8:35 AM 42.8 °F 35.4 °F 30.2 °F 61% 30.09 in 10.0 mi NNW 15.0 mph 20.7 mph N/A   Clear
8:55 AM 42.8 °F 35.4 °F 32.0 °F 66% 30.10 in 10.0 mi NNW 15.0 mph 21.9 mph N/A   Clear
9:14 AM 42.8 °F 36.2 °F 32.0 °F 66% 30.11 in 10.0 mi NNW 12.7 mph 19.6 mph N/A   Clear
9:35 AM 41.0 °F 32.5 °F 32.0 °F 70% 30.12 in 10.0 mi NNW 17.3 mph - N/A   Clear
9:55 AM 42.8 °F 34.5 °F 32.0 °F 66% 30.13 in 10.0 mi North 18.4 mph - N/A   Clear
10:15 AM 42.8 °F 35.8 °F 32.0 °F 66% 30.15 in 10.0 mi North 13.8 mph - N/A   Clear
10:35 AM 44.6 °F 36.9 °F 30.2 °F 57% 30.15 in 10.0 mi North 18.4 mph 23.0 mph N/A   Clear
10:55 AM 44.6 °F 37.2 °F 30.2 °F 57% 30.17 in 10.0 mi North 17.3 mph 21.9 mph N/A   Clear
11:15 AM 44.6 °F 37.4 °F 28.4 °F 53% 30.18 in 10.0 mi North 16.1 mph - N/A   Clear
11:35 AM 44.6 °F 37.8 °F 26.6 °F 49% 30.18 in 10.0 mi North 15.0 mph 23.0 mph N/A   Clear
11:55 AM 46.4 °F 39.8 °F 24.8 °F 43% 30.19 in 10.0 mi NNW 16.1 mph - N/A   Clear
12:15 PM 44.6 °F 37.2 °F 26.6 °F 49% 30.19 in 10.0 mi North 17.3 mph 21.9 mph N/A   Clear
12:55 PM 46.4 °F 40.7 °F 26.6 °F 46% 30.21 in 10.0 mi North 12.7 mph 18.4 mph N/A   Clear
1:15 PM 46.4 °F 40.4 °F 26.6 °F 46% 30.21 in - NNW 13.8 mph 18.4 mph N/A   Clear
1:35 PM 46.4 °F 40.1 °F 24.8 °F 43% 30.21 in - NNW 15.0 mph 20.7 mph N/A   Clear
1:55 PM 46.4 °F 40.4 °F 24.8 °F 43% 30.20 in - North 13.8 mph 19.6 mph N/A   Clear
2:15 PM 46.4 °F 39.8 °F 24.8 °F 43% 30.21 in - NNW 16.1 mph - N/A   Clear
2:35 PM 46.4 °F 39.0 °F 19.4 °F 34% 30.21 in - North 19.6 mph 24.2 mph N/A   Scattered Clouds
2:55 PM 46.4 °F 39.5 °F 17.6 °F 32% 30.23 in - NNW 17.3 mph 21.9 mph N/A   Scattered Clouds
3:15 PM 46.4 °F 39.5 °F 17.6 °F 32% 30.25 in - NNW 17.3 mph - N/A   Clear
3:35 PM 46.4 °F 39.5 °F 15.8 °F 29% 30.25 in - NNW 17.3 mph 23.0 mph N/A   Clear
3:55 PM 46.4 °F 39.8 °F 15.8 °F 29% 30.25 in - NW 16.1 mph - N/A   Clear
4:14 PM 46.4 °F 40.1 °F 15.8 °F 29% 30.25 in - NW 15.0 mph 20.7 mph N/A   Clear
5:15 PM 46.4 °F 41.1 °F 8.6 °F 22% 30.26 in - NNW 11.5 mph 16.1 mph N/A   Scattered Clouds
5:35 PM 46.4 °F 40.4 °F 10.4 °F 23% 30.26 in - North 13.8 mph 18.4 mph N/A   Scattered Clouds
5:55 PM 44.6 °F 38.4 °F 8.6 °F 23% 30.27 in - NNW 12.7 mph 17.3 mph N/A   Clear
6:35 PM 44.6 °F - 10.4 °F 25% 30.28 in - Calm Calm - N/A   Clear
6:55 PM 42.8 °F 38.0 °F 12.2 °F 29% 30.29 in - NNW 8.1 mph - N/A   Clear
7:15 PM 42.8 °F 37.5 °F 12.2 °F 29% 30.30 in - NNW 9.2 mph - N/A   Clear
7:35 PM 42.8 °F - 12.2 °F 29% 30.31 in - Calm Calm - N/A   Clear
7:55 PM 41.0 °F - 12.2 °F 31% 30.31 in - Calm Calm - N/A   Clear
8:15 PM 37.4 °F - 12.2 °F 36% 30.32 in - Calm Calm - N/A   Clear
8:35 PM 35.6 °F - 14.0 °F 41% 30.33 in - Calm Calm - N/A   Clear
8:55 PM 35.6 °F - 15.8 °F 44% 30.34 in - Calm Calm - N/A   Clear
9:15 PM 30.2 °F - 15.8 °F 55% 30.35 in - Calm Calm - N/A   Clear
9:54 PM 32.0 °F - 15.8 °F 51% 30.37 in - Calm Calm - N/A   Clear
10:15 PM 30.2 °F - 15.8 °F 55% 30.38 in - Calm Calm - N/A   Clear
10:35 PM 26.6 °F - 15.8 °F 64% 30.38 in - Calm Calm - N/A   Clear
10:55 PM 26.6 °F - 15.8 °F 64% 30.39 in - Calm Calm - N/A   Clear
11:15 PM 24.8 °F - 14.0 °F 64% 30.40 in - Calm Calm - N/A   Clear
11:35 PM 24.8 °F - 15.8 °F 69% 30.41 in - Calm Calm - N/A   Clear
11:55 PM 26.6 °F - 15.8 °F 64% 30.41 in - Calm Calm - N/A   Clear